www.pogodaiklimat.ru

ПОГОДА в Дедхорсе, AK

  • Прогноз погоды в Дедхорсе
  • Монитор погоды в Дедхорсе
  • Климат в Дедхорсе

АРХИВ ПОГОДЫ в Дедхорсе

Время (UTC), дата Ветер
(напр.,м/с)
 
Видим.   Явления Облачность Т
(С)
Тd
(С)
f
(%)
Тe
(С)
Тes
(С)
Комфортность

P
(гПа)

Po
(гПа)
Тmin
(С)
Tmax
(С)
R
(мм)
SD
(см)
11:53 25.03 Ю  16 км    ясно  -5.6  -8.3  81  -12  -12    1010.3  1008.0         
12:53 25.03 ЮЗ  16 км    5/0 2100 м
[средняя] 
-5.6  -8.9  78  -14  -14    1009.9  1007.7         
13:53 25.03 ЮЗ  16 км    5/2 1950 м
[средняя верхняя] 
-4.4  -7.8  77  -14  -14    1010.2  1008.0         
14:53 25.03 З  10  16 км    8/0 2550 м
[средняя верхняя] 
-5.0  -7.8  81  -15  -15    1011.0  1008.7         
15:53 25.03 З  16 км    8/2 1650 м
[средняя верхняя] 
-3.9  -6.7  81  -13  -13    1011.9  1009.7         
16:53 25.03 З  10  16 км    8/0 2250 м
[средняя верхняя] 
-2.8  -5.6  81  -12  -12    1012.7  1010.4  -5.6  -2.2     
17:53 25.03 З  13  11 км    10/5 690 м
[средняя] 
-1.7  -3.9  85  -12  -12    1013.3  1011.0         
18:44 25.03 З  10  3 км  слабый снег, метель  10/10 690 м  -1.7  -3.3  89  -11  -11      1011.7         
18:53 25.03 З  10  1 км  слабый снег, метель  10/10 690 м  -1.7  -3.3  89  -11  -11    1014.2  1012.1         
19:21 25.03 З  1 км  слабый снег, метель  10/10 270 м  -1.7  -3.3  89  -10  -10      1012.4         
19:43 25.03 З  800 м  снег, метель  ?/?  -1.7  -3.3  89  -10  -10      1012.7         
19:53 25.03 З  800 м  снег, метель  ?/?  -1.7  -3.9  85  -10  -10    1015.1  1012.7         
20:14 25.03 З  5 км  слабый снег, метель  10/10 720 м  -1.1  -3.9  81  -9  -9      1013.1         
20:53 25.03 ЮЗ  11 км    10/10 1260 м  -1.1  -4.4  78  -9  -9    1015.1  1012.7         
21:12 25.03 ЮЗ  16 км    10/10 1200 м  -1.7  -4.4  82  -10  -10      1013.1         
21:53 25.03 ЮЗ  16 км    10/10 1200 м  -2.2  -5.0  81  -9  -9    1015.8  1013.4         
22:53 25.03 ЮЗ  16 км    8/0 2850 м
[средняя] 
-2.8  -6.1  78  -11  -11    1015.9  1013.8  -2.8  -1.1     
23:53 25.03 ЮЗ  16 км    5/0 3000 м
[средняя] 
-3.3  -6.7  77  -11  -10    1016.2  1014.1         
00:53 26.03 ЮЗ  16 км    5/0 3000 м
[средняя] 
-4.4  -7.2  81  -13  -12    1016.4  1014.1         
01:53 26.03 ЮЗ  16 км    2/0 3000 м
[средняя] 
-5.6  -8.3  81  -14  -13    1016.7  1014.4         
02:40 26.03 ЮЗ  16 км    5/2 270 м
[средняя] 
-7.2  -10.0  80  -16  -16      1014.4         
02:53 26.03 ЮЗ  16 км    5/2 270 м
[средняя] 
-7.8  -10.0  84  -16  -16    1016.9  1014.4         
03:53 26.03 З  16 км    ясно  -8.3  -10.6  83  -16  -16    1016.8  1014.4         
04:53 26.03 З  16 км    ясно  -10.0  -11.7  87  -17  -17    1016.8  1014.4  -10.0  -2.8     
05:53 26.03 ЮЗ  16 км    ясно  -11.7  -13.9  84  -18  -18    1016.8  1014.4         
06:53 26.03 С  16 км    5/5 90 м  -11.1  -12.8  87  -15  -15    1016.7  1014.4         
07:07 26.03 СВ  3 км  дымка  10/10 90 м  -10.0  -12.2  84  -15  -15      1014.4         
07:40 26.03 В  400 м  переохлажденный туман  ?/?  -13.9  -15.0  91  -20  -20      1014.4         
07:53 26.03 В  400 м  переохлажденный туман  ?/?  -13.3  -14.4  91  -19  -19    1016.8  1014.4         
08:25 26.03 В  800 м  переохлажденный туман  ?/?  -12.8  -13.9  91  -19  -19      1014.4         
08:53 26.03 В  1 км  дымка  ?/?  -12.8  -15.0  84  -21  -21    1016.8  1014.4         
09:53 26.03 В  800 м  переохлажденный туман  ?/?  -12.2  -14.4  84  -20  -20    1016.7  1014.4         
10:53 26.03 В  1 км  дымка  ?/?  -12.2  -14.4  84  -21  -21    1016.3  1014.1  -13.9  -9.4     
11:53 26.03 В  1 км  дымка  ?/?  -12.8  -15.0  84  -22  -22    1015.9  1013.8         
12:11 26.03 В  2 км  дымка  10/10 30 м  -13.3  -15.6  83  -23  -23      1013.8         
12:53 26.03 В  6 км  дымка  8/8 30 м  -13.3  -15.6  83  -22  -22    1015.9  1013.4         
13:00 26.03 В  10 км  дымка  8/8 60 м  -13.3  -15.6  83  -21  -21      1013.4         
13:53 26.03 В  11 км    8/8 60 м  -12.2  -15.0  80  -21  -21    1015.5  1013.1         
14:53 26.03 В  10 км  слабый снег, дымка  10/10 60 м  -10.6  -12.8  84  -20  -20    1015.5  1013.1         
15:53 26.03 В  10 км  дымка  10/10 90 м  -10.0  -12.2  84  -19  -19    1015.4  1013.1         
16:53 26.03 В  10 км  дымка  10/8 90 м
[средняя] 
-9.4  -11.7  83  -19  -19    1015.0  1012.7  -13.9  -9.4     
17:00 26.03 В  6 км  дымка  10/10 90 м  -9.4  -11.7  83  -19  -19      1012.4         
17:53 26.03 В  6 км  дымка  10/10 90 м  -8.9  -11.1  84  -19  -19    1014.7  1012.4         
18:00 26.03 В  14 км  дымка  10/10 90 м  -8.9  -11.1  84  -19  -19      1012.4         
18:53 26.03 В  10 км  дымка  10/10 1230 м  -8.3  -11.1  80  -18  -18    1014.6  1012.4         
19:53 26.03 В  10 км  дымка  10/10 930 м  -7.8  -10.0  84  -17  -17    1014.8  1012.4         
20:53 26.03 В  10 км  дымка  10/8 1020 м
[средняя] 
-7.2  -9.4  84  -16  -16    1014.4  1012.1         
21:53 26.03 В  10 км  дымка  10/10 900 м  -6.7  -8.9  84  -16  -16    1014.3  1012.1         

 

Местоположение метеостанции Deadhorse Airport: широта 70.2000 долгота -148.4667 высота над уровнем моря 17 м.

В архиве по умолчанию представлена погода в Дедхорсе за последние 1-2 суток. Обновление информации о фактической погоде в базе происходит ежечасно! Архивные данные за месяц целиком и за предыдущие месяцы Вы можете получить, выбрав интересующий диапазон дат из раскрывающегося списка и нажав кнопку "Ввод!".

Внимание! Архив погоды МЕТАР в базе сайта хранится не более 60 дней. Нет смысла пытаться выбрать более раннюю дату.

Внимание! Время в таблицах - всемирное. Для получения местного времени необходимо прибавить поправку, которая в Дедхорсе равна -9 ч.

Ветер - указаны скорость ветра в м/с и направление, откуда дует ветер: С - северный, СВ - северо-восточный, В - восточный, ЮВ - юго-восточный, Ю - южный, ЮЗ - юго-западный, З - западный, СЗ - северо-западный.
Видимость - горизонтальная дальность видимости в метрах или километрах. При видимости от 1 до 10 км при отсутствии осадков обычно наблюдается дымка, при ухудшении видимости до 1 км и менее - туман. В сухую погоду видимость может ухудшаться дымом, пылью или мглою.
Атмосферные явления - указаны явления, наблюдавшиеся в указанный момент времени.
Облачность - указаны через наклонную черту верхняя и нижняя облачность в баллах и высота нижней границы облаков в метрах. Внимание: облачность, как и прочие метеорологические величины в США измеряются автоматическими метеостанциями. Указанные значения в баллах носят условный характер и показывают процент времени, в течение которого, в среднем, лазерный луч высотомера отражался от облаков обратно.
T - Температура воздуха - температура, измеренная на высоте 2 м над землей.
Td - Температура точки росы - температура, при понижении до которой содержащийся в воздухе водяной пар достигнет насыщения.
f - Относительная влажность воздуха - влажноcть воздуха, измеренная на высоте 2 м над землей.
Te - Эффективная температура - температура, которую ощущает одетый по сезону человек в тени. Характеристика душности погоды. При расчете учитывается влияние влажности воздуха и скорости ветра на теплоощущения человека.
Tes - Эффективная температура на солнце - температура, которую ощущает человек, с поправкой на солнечный нагрев. Характеристика знойности погоды. Зависит от высоты солнца над горизонтом, облачности и скорости ветра. Ночью, в пасмурную погоду, а также при ветре 12 м/с и более поправка равна нулю.
P - Атмосферное давление - приведенное к уровню моря атмосферное давление.
Po - Атмосферное давление - измеренное на уровне метеостанции атмосферное давление.
Tmin - Минимальная температура - минимум температуры воздуха на высоте 2 м над землей.
Tmax - Максимальная температура - максимум температуры воздуха на высоте 2 м над землей.
R - Количество осадков - Количество выпавших осадков за 3 или 6 часов, мм.
SD - Снежный покров - Высота снежного покрова, см.